Wind_Speed
17 21 24 24 22 18 17 19 19 18 18 15 12 17 16 14 12 13 23 32 29 31 38 34 35 34 30 29 25 23 24 24
21 24 26 24 22 17 15 17 18 16 16 14 10 16 15 15 11 9 12 18 35 29 34 33 33 32 30 28 25 23 27 26
25 23 23 24 21 16 14 15 16 15 14 12 9 14 15 14 12 7 3 17 30 38 36 36 35 35 33 35 32 33 32 27
23 24 21 19 18 11 12 13 14 13 13 11 9 15 18 18 18 13 13 12 17 22 27 35 37 37 35 30 29 27 24 30
24 22 20 17 14 12 11 10 12 11 11 10 6 12 17 16 17 16 14 17 19 22 21 30 38 40 38 32 32 32 30 31
28 22 19 18 14 15 14 9 10 9 9 9 6 11 14 15 18 22 20 21 26 29 26 28 27 32 31 38 38 35 32 32
24 23 21 24 17 17 15 11 9 6 7 7 7 7 11 13 15 18 17 22 27 25 26 32 32 29 35 36 39 41 36 34
20 23 26 20 22 20 16 12 9 5 4 4 3 5 9 11 12 14 17 24 31 32 23 27 28 28 35 37 35 37 42 37
21 18 23 21 22 20 14 12 9 7 5 3 0 1 4 7 8 9 11 11 28 29 26 28 31 27 30 40 42 42 39 42
25 21 24 22 24 19 15 13 12 9 8 5 4 3 1 3 5 4 3 10 18 18 26 36 24 28 25 34 40 39 38 37
25 26 26 28 27 23 17 16 15 13 9 7 6 5 5 3 2 2 3 7 18 20 19 19 19 20 24 28 30 33 39 39
24 32 29 32 28 26 19 15 13 14 13 11 9 8 6 4 4 5 5 5 8 15 15 17 17 18 20 20 34 31 35 38
24 29 34 32 29 26 22 19 15 15 14 14 12 10 8 6 5 5 6 7 8 10 14 13 15 21 22 23 27 32 31 33
23 31 33 34 32 31 30 26 20 14 12 11 11 11 11 10 9 8 7 8 9 10 12 13 14 15 18 23 29 32 32 35
19 27 31 33 32 31 27 21 17 14 12 11 10 11 14 14 14 13 12 12 12 12 13 14 16 19 22 24 24 26 27 29
14 19 22 33 31 30 25 19 15 15 16 14 12 11 13 12 13 14 15 16 16 18 19 19 20 21 23 24 27 29 30 32
19 16 14 10 11 11 19 23 15 20 15 15 14 13 14 16 17 17 18 19 20 20 19 20 24 26 27 29 31 33 34 37
17 19 16 11 8 4 3 3 6 8 11 14 17 19 20 19 20 20 21 22 24 26 28 29 31 32 34 33 34 37 38 41
13 15 16 9 9 4 3 7 9 11 15 17 19 21 23 24 26 28 29 29 28 29 30 31 32 35 37 40 42 43 43 46
Wind_Direction
247 258 268 268 264 273 296 304 306 301 307 308 273 225 219 230 225 238 226 217 222 211 197 191 204 204 203 206 207 217 221 218
244 254 265 262 259 268 283 301 306 302 306 310 282 230 217 215 214 237 222 205 213 198 183 188 201 205 208 210 204 213 222 214
229 245 255 258 255 250 277 294 307 301 307 311 272 231 218 212 217 224 232 166 188 190 189 192 197 204 202 215 223 220 216 220
226 240 243 241 232 246 264 288 309 301 310 315 266 231 210 207 211 209 213 230 226 212 207 196 197 208 218 227 226 222 231 215
227 233 242 233 221 225 252 278 301 302 312 319 256 225 224 221 222 230 229 229 215 225 225 215 205 209 210 212 219 227 230 231
233 235 230 233 216 226 243 273 289 302 310 317 278 215 221 220 223 232 232 242 228 221 223 221 220 219 228 213 222 223 224 228
228 233 234 234 212 220 236 260 276 290 302 315 307 244 222 226 245 247 233 225 225 209 224 217 220 227 224 226 223 221 217 226
238 242 236 223 215 226 233 256 259 259 276 308 319 280 246 241 248 263 249 226 219 220 224 226 221 241 232 236 235 231 228 217
236 226 230 229 209 223 224 241 239 220 214 215 278 316 273 261 248 268 266 225 213 215 220 223 236 236 235 239 229 229 230 231
237 220 226 224 203 209 213 224 223 210 204 193 183 140 137 243 253 272 247 215 193 216 227 231 242 241 247 250 241 233 237 240
230 229 213 194 198 206 212 213 216 218 209 196 191 178 160 155 224 228 224 212 211 205 213 219 241 242 234 240 246 247 242 246
251 227 199 183 194 197 202 198 199 210 218 212 200 200 194 174 174 186 179 197 215 217 227 223 231 229 232 236 242 254 252 249
227 183 180 183 193 194 192 191 198 202 210 221 219 215 214 211 203 204 212 213 211 220 232 249 242 228 237 235 237 239 250 247
201 185 184 191 193 196 196 201 208 221 223 232 236 233 232 230 228 231 231 235 242 247 250 255 261 257 248 246 247 250 257 252
198 193 195 198 199 201 207 213 220 226 211 213 226 239 238 242 245 241 241 247 252 255 258 261 265 267 267 266 262 259 259 259
181 195 198 203 204 210 214 223 220 235 230 233 236 241 250 251 257 260 261 263 260 260 263 266 266 267 270 273 274 276 275 273
111 127 128 155 186 195 222 236 219 238 236 247 251 257 256 258 260 263 267 271 268 265 266 273 279 273 273 272 270 268 267 267
109 110 111 112 106 103 134 221 266 263 257 260 268 273 275 270 268 270 271 272 272 269 265 264 260 266 269 264 261 259 261 267
165 146 130 120 138 155 270 268 275 278 280 276 273 272 271 268 267 267 269 270 269 267 264 264 263 262 263 262 263 264 264 267
Height
3054 3057 3059 3061 3062 3063 3061 3060 3058 3055 3053 3052 3051 3052 3054 3056 3057 3057 3057 3063 3069 3073 3081 3087 3095 3099 3105 3110 3115 3120 3125 3130
3048 3050 3054 3056 3057 3059 3059 3057 3055 3052 3051 3050 3048 3050 3052 3054 3056 3055 3053 3058 3063 3073 3079 3087 3093 3097 3103 3108 3113 3118 3121 3124
3042 3045 3048 3050 3053 3055 3055 3054 3052 3050 3048 3047 3047 3048 3051 3053 3054 3055 3057 3059 3064 3071 3077 3083 3089 3095 3099 3103 3108 3113 3117 3121
3037 3040 3043 3046 3048 3051 3052 3051 3050 3047 3046 3045 3044 3046 3048 3050 3052 3055 3059 3062 3066 3071 3075 3080 3086 3091 3095 3098 3103 3107 3113 3117
3031 3035 3038 3042 3045 3047 3048 3048 3047 3045 3043 3043 3042 3044 3047 3049 3051 3055 3058 3061 3065 3068 3072 3077 3081 3086 3090 3097 3100 3106 3110 3113
3026 3030 3034 3038 3041 3044 3045 3045 3045 3044 3042 3041 3040 3042 3045 3047 3049 3052 3054 3057 3061 3066 3069 3073 3077 3082 3087 3092 3095 3101 3105 3109
3020 3023 3028 3033 3037 3040 3042 3043 3043 3042 3041 3040 3038 3039 3042 3045 3047 3048 3049 3053 3056 3060 3066 3068 3074 3080 3083 3087 3091 3094 3099 3105
3015 3017 3022 3027 3032 3036 3039 3041 3041 3041 3041 3039 3038 3038 3039 3041 3044 3045 3045 3046 3050 3056 3062 3066 3071 3075 3078 3081 3085 3089 3093 3097
3009 3012 3017 3022 3028 3033 3036 3038 3039 3039 3039 3038 3037 3037 3038 3039 3040 3041 3041 3041 3045 3052 3057 3063 3067 3071 3074 3076 3079 3082 3086 3090
3003 3007 3012 3017 3023 3029 3033 3034 3035 3036 3036 3036 3036 3036 3036 3037 3038 3039 3039 3042 3044 3050 3055 3057 3063 3066 3069 3072 3073 3077 3081 3085
2997 3000 3005 3011 3018 3025 3028 3030 3031 3033 3034 3034 3034 3034 3035 3036 3038 3038 3038 3040 3044 3048 3051 3056 3058 3060 3063 3067 3070 3073 3077 3080
2991 2993 2999 3005 3013 3019 3024 3026 3028 3030 3031 3033 3033 3033 3034 3035 3036 3038 3038 3040 3043 3047 3050 3052 3055 3056 3059 3060 3066 3068 3070 3074
2987 2987 2994 3001 3008 3015 3020 3022 3024 3025 3027 3030 3032 3033 3033 3034 3035 3036 3038 3039 3040 3043 3046 3048 3050 3052 3055 3057 3060 3062 3064 3066
2982 2986 2990 2997 3003 3008 3013 3016 3020 3023 3025 3027 3030 3031 3033 3034 3034 3036 3037 3038 3040 3041 3043 3044 3046 3047 3050 3052 3054 3057 3057 3058
2980 2984 2988 2994 3000 3006 3011 3015 3018 3021 3024 3024 3026 3028 3029 3030 3032 3033 3034 3035 3037 3038 3040 3041 3042 3043 3045 3046 3048 3049 3051 3052
2980 2983 2986 2992 2999 3003 3007 3012 3015 3019 3020 3021 3023 3025 3026 3027 3029 3030 3031 3032 3034 3035 3036 3037 3038 3040 3041 3042 3043 3043 3043 3043
2981 2983 2987 2992 2997 3000 3004 3007 3010 3015 3016 3018 3019 3021 3022 3024 3025 3026 3028 3028 3030 3030 3032 3032 3034 3035 3036 3037 3036 3036 3036 3036
2985 2984 2987 2993 2995 2999 3002 3006 3007 3009 3011 3013 3014 3016 3017 3018 3019 3021 3021 3022 3023 3024 3025 3025 3025 3028 3029 3027 3027 3025 3026 3026
2983 2984 2986 2992 2994 2998 3002 3003 3004 3005 3006 3007 3008 3009 3010 3011 3012 3013 3014 3014 3014 3015 3015 3015 3016 3016 3016 3016 3017 3016 3015 3016